Year,Month,Day,Hour,Minute,Value (Times are PST for temperature in C)
2008,06,29,00,00,17.90
2008,06,29,00,01,17.90
2008,06,29,00,02,17.90
2008,06,29,00,03,18.00
2008,06,29,00,04,18.10
2008,06,29,00,05,18.10
2008,06,29,00,06,18.20
2008,06,29,00,07,18.20
2008,06,29,00,08,18.30
2008,06,29,00,09,18.40
2008,06,29,00,10,18.50
2008,06,29,00,11,18.60
2008,06,29,00,12,18.70
2008,06,29,00,13,18.80
2008,06,29,00,14,18.90
2008,06,29,00,15,18.90
2008,06,29,00,16,18.90
2008,06,29,00,17,18.90
2008,06,29,00,18,18.90
2008,06,29,00,19,18.90
2008,06,29,00,20,19.00
2008,06,29,00,21,19.10
2008,06,29,00,22,19.10
2008,06,29,00,23,19.10
2008,06,29,00,24,19.10
2008,06,29,00,25,19.10
2008,06,29,00,26,19.00
2008,06,29,00,27,19.10
2008,06,29,00,28,19.10
2008,06,29,00,29,19.10
2008,06,29,00,30,19.10
2008,06,29,00,31,19.10
2008,06,29,00,32,19.10
2008,06,29,00,33,19.10
2008,06,29,00,34,19.10
2008,06,29,00,35,19.20
2008,06,29,00,36,19.20
2008,06,29,00,37,19.30
2008,06,29,00,38,19.30
2008,06,29,00,39,19.30
2008,06,29,00,40,19.30
2008,06,29,00,41,19.40
2008,06,29,00,42,19.40
2008,06,29,00,43,19.40
2008,06,29,00,44,19.40
2008,06,29,00,45,19.40
2008,06,29,00,46,19.40
2008,06,29,00,47,19.40
2008,06,29,00,48,19.40
2008,06,29,00,49,19.40
2008,06,29,00,50,19.40
2008,06,29,00,51,19.40
2008,06,29,00,52,19.40
2008,06,29,00,53,19.40
2008,06,29,00,54,19.40
2008,06,29,00,55,19.40
2008,06,29,00,56,19.40
2008,06,29,00,57,19.40
2008,06,29,00,58,19.40
2008,06,29,00,59,19.50
2008,06,29,01,00,19.50
2008,06,29,01,01,19.50
2008,06,29,01,02,19.60
2008,06,29,01,03,19.60
2008,06,29,01,04,19.70
2008,06,29,01,05,19.70
2008,06,29,01,06,19.70
2008,06,29,01,07,19.80
2008,06,29,01,08,19.80
2008,06,29,01,09,19.80
2008,06,29,01,10,19.90
2008,06,29,01,11,19.90
2008,06,29,01,12,19.90
2008,06,29,01,13,19.90
2008,06,29,01,14,19.90
2008,06,29,01,15,19.90
2008,06,29,01,16,19.90
2008,06,29,01,17,19.90
2008,06,29,01,18,19.90
2008,06,29,01,19,19.90
2008,06,29,01,20,19.90
2008,06,29,01,21,19.90
2008,06,29,01,22,19.90
2008,06,29,01,23,19.90
2008,06,29,01,24,19.90
2008,06,29,01,25,19.90
2008,06,29,01,26,19.90
2008,06,29,01,27,19.80
2008,06,29,01,28,19.80
2008,06,29,01,29,19.70
2008,06,29,01,30,19.60
2008,06,29,01,31,19.60
2008,06,29,01,32,19.60
2008,06,29,01,33,19.50
2008,06,29,01,34,19.50
2008,06,29,01,35,19.40
2008,06,29,01,36,19.40
2008,06,29,01,37,19.40
2008,06,29,01,38,19.30
2008,06,29,01,39,19.30
2008,06,29,01,40,19.20
2008,06,29,01,41,19.20
2008,06,29,01,42,19.10
2008,06,29,01,43,19.10
2008,06,29,01,44,19.10
2008,06,29,01,45,19.00
2008,06,29,01,46,18.90
2008,06,29,01,47,18.90
2008,06,29,01,48,18.90
2008,06,29,01,49,18.80
2008,06,29,01,50,18.80
2008,06,29,01,51,18.70
2008,06,29,01,52,18.70
2008,06,29,01,53,18.60
2008,06,29,01,54,18.60
2008,06,29,01,55,18.50
2008,06,29,01,56,18.50
2008,06,29,01,57,18.40
2008,06,29,01,58,18.30
2008,06,29,01,59,18.20
2008,06,29,02,00,18.10
2008,06,29,02,01,18.00
2008,06,29,02,02,17.90
2008,06,29,02,03,17.80
2008,06,29,02,04,17.60
2008,06,29,02,05,17.40
2008,06,29,02,06,17.20
2008,06,29,02,07,17.10
2008,06,29,02,08,16.90
2008,06,29,02,09,16.90
2008,06,29,02,10,16.80
2008,06,29,02,11,16.70
2008,06,29,02,12,16.60
2008,06,29,02,13,16.50
2008,06,29,02,14,16.40
2008,06,29,02,15,16.30
2008,06,29,02,16,16.20
2008,06,29,02,17,16.20
2008,06,29,02,18,16.10
2008,06,29,02,19,16.10
2008,06,29,02,20,16.10
2008,06,29,02,21,16.00
2008,06,29,02,22,15.90
2008,06,29,02,23,15.90
2008,06,29,02,24,15.90
2008,06,29,02,25,15.90
2008,06,29,02,26,15.90
2008,06,29,02,27,15.90
2008,06,29,02,28,15.90
2008,06,29,02,29,16.00
2008,06,29,02,30,16.10
2008,06,29,02,31,16.10
2008,06,29,02,32,16.10
2008,06,29,02,33,16.00
2008,06,29,02,34,15.90
2008,06,29,02,35,15.90
2008,06,29,02,36,15.80
2008,06,29,02,37,15.80
2008,06,29,02,38,15.80
2008,06,29,02,39,15.80
2008,06,29,02,40,15.80
2008,06,29,02,41,15.70
2008,06,29,02,42,15.70
2008,06,29,02,43,15.70
2008,06,29,02,44,15.70
2008,06,29,02,45,15.70
2008,06,29,02,46,15.70
2008,06,29,02,47,15.60
2008,06,29,02,48,15.60
2008,06,29,02,49,15.60
2008,06,29,02,50,15.60
2008,06,29,02,51,15.60
2008,06,29,02,52,15.60
2008,06,29,02,53,15.70
2008,06,29,02,54,15.70
2008,06,29,02,55,15.70
2008,06,29,02,56,15.70
2008,06,29,02,57,15.70
2008,06,29,02,58,15.70
2008,06,29,02,59,15.70
2008,06,29,03,00,15.70
2008,06,29,03,01,15.70
2008,06,29,03,02,15.70
2008,06,29,03,03,15.70
2008,06,29,03,04,15.70
2008,06,29,03,05,15.70
2008,06,29,03,06,15.70
2008,06,29,03,07,15.70
2008,06,29,03,08,15.70
2008,06,29,03,09,15.70
2008,06,29,03,10,15.70
2008,06,29,03,11,15.70
2008,06,29,03,12,15.80
2008,06,29,03,13,15.80
2008,06,29,03,14,15.80
2008,06,29,03,15,15.80
2008,06,29,03,16,15.80
2008,06,29,03,17,15.80
2008,06,29,03,18,15.80
2008,06,29,03,19,15.80
2008,06,29,03,20,15.80
2008,06,29,03,21,15.90
2008,06,29,03,22,15.90
2008,06,29,03,23,15.90
2008,06,29,03,24,15.90
2008,06,29,03,25,15.90
2008,06,29,03,26,15.90
2008,06,29,03,27,15.90
2008,06,29,03,28,15.90
2008,06,29,03,29,15.90
2008,06,29,03,30,15.90
2008,06,29,03,31,15.90
2008,06,29,03,32,15.90
2008,06,29,03,33,15.90
2008,06,29,03,34,15.90
2008,06,29,03,35,15.90
2008,06,29,03,36,15.90
2008,06,29,03,37,15.90
2008,06,29,03,38,15.90
2008,06,29,03,39,15.90
2008,06,29,03,40,15.80
2008,06,29,03,41,15.80
2008,06,29,03,42,15.80
2008,06,29,03,43,15.80
2008,06,29,03,44,15.70
2008,06,29,03,45,15.70
2008,06,29,03,46,15.70
2008,06,29,03,47,15.70
2008,06,29,03,48,15.60
2008,06,29,03,49,15.60
2008,06,29,03,50,15.60
2008,06,29,03,51,15.60
2008,06,29,03,52,15.60
2008,06,29,03,53,15.60
2008,06,29,03,54,15.50
2008,06,29,03,55,15.50
2008,06,29,03,56,15.50
2008,06,29,03,57,15.50
2008,06,29,03,58,15.50
2008,06,29,03,59,15.50
2008,06,29,04,00,15.50
2008,06,29,04,01,15.60
2008,06,29,04,02,15.60
2008,06,29,04,03,15.60
2008,06,29,04,04,15.60
2008,06,29,04,05,15.60
2008,06,29,04,06,15.70
2008,06,29,04,07,15.70
2008,06,29,04,08,15.70
2008,06,29,04,09,15.80
2008,06,29,04,10,15.80
2008,06,29,04,11,15.80
2008,06,29,04,12,15.80
2008,06,29,04,13,15.80
2008,06,29,04,14,15.80
2008,06,29,04,15,15.80
2008,06,29,04,16,15.80
2008,06,29,04,17,15.80
2008,06,29,04,18,15.80
2008,06,29,04,19,15.80
2008,06,29,04,20,15.80
2008,06,29,04,21,15.80
2008,06,29,04,22,15.80
2008,06,29,04,23,15.80
2008,06,29,04,24,15.80
2008,06,29,04,25,15.80
2008,06,29,04,26,15.80
2008,06,29,04,27,15.80
2008,06,29,04,28,15.80
2008,06,29,04,29,15.80
2008,06,29,04,30,15.80
2008,06,29,04,31,15.80
2008,06,29,04,32,15.80
2008,06,29,04,33,15.80
2008,06,29,04,34,15.70
2008,06,29,04,35,15.70
2008,06,29,04,36,15.70
2008,06,29,04,37,15.70
2008,06,29,04,38,15.70
2008,06,29,04,39,15.70
2008,06,29,04,40,15.70
2008,06,29,04,41,15.70
2008,06,29,04,42,15.70
2008,06,29,04,43,15.70
2008,06,29,04,44,15.70
2008,06,29,04,45,15.70
2008,06,29,04,46,15.80
2008,06,29,04,47,15.80
2008,06,29,04,48,15.80
2008,06,29,04,49,15.90
2008,06,29,04,50,16.00
2008,06,29,04,51,16.10
2008,06,29,04,52,16.10
2008,06,29,04,53,16.10
2008,06,29,04,54,16.10
2008,06,29,04,55,16.10
2008,06,29,04,56,16.10
2008,06,29,04,57,16.20
2008,06,29,04,58,16.20
2008,06,29,04,59,16.30
2008,06,29,05,00,16.30
2008,06,29,05,01,16.40
2008,06,29,05,02,16.40
2008,06,29,05,03,16.40
2008,06,29,05,04,16.40
2008,06,29,05,05,16.40
2008,06,29,05,06,16.40
2008,06,29,05,07,16.40
2008,06,29,05,08,16.30
2008,06,29,05,09,16.30
2008,06,29,05,10,16.20
2008,06,29,05,11,16.20
2008,06,29,05,12,16.20
2008,06,29,05,13,16.20
2008,06,29,05,14,16.20
2008,06,29,05,15,16.20
2008,06,29,05,16,16.10
2008,06,29,05,17,16.10
2008,06,29,05,18,16.10
2008,06,29,05,19,16.10
2008,06,29,05,20,16.00
2008,06,29,05,21,15.90
2008,06,29,05,22,15.90
2008,06,29,05,23,15.80
2008,06,29,05,24,15.80
2008,06,29,05,25,15.80
2008,06,29,05,26,15.80
2008,06,29,05,27,15.70
2008,06,29,05,28,15.70
2008,06,29,05,29,15.70
2008,06,29,05,30,15.60
2008,06,29,05,31,15.60
2008,06,29,05,32,15.60
2008,06,29,05,33,15.60
2008,06,29,05,34,15.60
2008,06,29,05,35,15.60
2008,06,29,05,36,15.50
2008,06,29,05,37,15.50
2008,06,29,05,38,15.50
2008,06,29,05,39,15.50
2008,06,29,05,40,15.40
2008,06,29,05,41,15.40
2008,06,29,05,42,15.30
2008,06,29,05,43,15.30
2008,06,29,05,44,15.30
2008,06,29,05,45,15.30
2008,06,29,05,46,15.30
2008,06,29,05,47,15.30
2008,06,29,05,48,15.30
2008,06,29,05,49,15.30
2008,06,29,05,50,15.30
2008,06,29,05,51,15.30
2008,06,29,05,52,15.30
2008,06,29,05,53,15.30
2008,06,29,05,54,15.30
2008,06,29,05,55,15.20
2008,06,29,05,56,15.20
2008,06,29,05,57,15.10
2008,06,29,05,58,15.10
2008,06,29,05,59,15.10
2008,06,29,06,00,15.10
2008,06,29,06,01,15.10
2008,06,29,06,02,15.10
2008,06,29,06,03,15.10
2008,06,29,06,04,15.10
2008,06,29,06,05,15.10
2008,06,29,06,06,15.20
2008,06,29,06,07,15.20
2008,06,29,06,08,15.20
2008,06,29,06,09,15.30
2008,06,29,06,10,15.30
2008,06,29,06,11,15.30
2008,06,29,06,12,15.30
2008,06,29,06,13,15.30
2008,06,29,06,14,15.30
2008,06,29,06,15,15.40
2008,06,29,06,16,15.40
2008,06,29,06,17,15.50
2008,06,29,06,18,15.50
2008,06,29,06,19,15.50
2008,06,29,06,20,15.50
2008,06,29,06,21,15.50
2008,06,29,06,22,15.50
2008,06,29,06,23,15.50
2008,06,29,06,24,15.50
2008,06,29,06,25,15.50
2008,06,29,06,26,15.50
2008,06,29,06,27,15.50
2008,06,29,06,28,15.60
2008,06,29,06,29,15.60
2008,06,29,06,30,15.60
2008,06,29,06,31,15.70
2008,06,29,06,32,15.70
2008,06,29,06,33,15.80
2008,06,29,06,34,15.90
2008,06,29,06,35,15.90
2008,06,29,06,36,16.10
2008,06,29,06,37,16.10
2008,06,29,06,38,16.10
2008,06,29,06,39,16.10
2008,06,29,06,40,16.10
2008,06,29,06,41,16.10
2008,06,29,06,42,16.10
2008,06,29,06,43,16.10
2008,06,29,06,44,16.10
2008,06,29,06,45,16.10
2008,06,29,06,46,16.20
2008,06,29,06,47,16.20
2008,06,29,06,48,16.20
2008,06,29,06,49,16.20
2008,06,29,06,50,16.10
2008,06,29,06,51,16.10
2008,06,29,06,52,16.10
2008,06,29,06,53,16.10
2008,06,29,06,54,16.10
2008,06,29,06,55,16.10
2008,06,29,06,56,16.20
2008,06,29,06,57,16.20
2008,06,29,06,58,16.20
2008,06,29,06,59,16.30
2008,06,29,07,00,16.30
2008,06,29,07,01,16.30
2008,06,29,07,02,16.40
2008,06,29,07,03,16.40
2008,06,29,07,04,16.50
2008,06,29,07,05,16.60
2008,06,29,07,06,16.60
2008,06,29,07,07,16.70
2008,06,29,07,08,16.70
2008,06,29,07,09,16.70
2008,06,29,07,10,16.80
2008,06,29,07,11,16.80
2008,06,29,07,12,16.80
2008,06,29,07,13,16.80
2008,06,29,07,14,16.90
2008,06,29,07,15,16.90
2008,06,29,07,16,16.90
2008,06,29,07,17,17.00
2008,06,29,07,18,16.90
2008,06,29,07,19,17.00
2008,06,29,07,20,17.00
2008,06,29,07,21,17.00
2008,06,29,07,22,17.00
2008,06,29,07,23,17.10
2008,06,29,07,24,17.20
2008,06,29,07,25,17.30
2008,06,29,07,26,17.30
2008,06,29,07,27,17.40
2008,06,29,07,28,17.50
2008,06,29,07,29,17.50
2008,06,29,07,30,17.50
2008,06,29,07,31,17.40
2008,06,29,07,32,17.40
2008,06,29,07,33,17.40
2008,06,29,07,34,17.40
2008,06,29,07,35,17.40
2008,06,29,07,36,17.40
2008,06,29,07,37,17.30
2008,06,29,07,38,17.30
2008,06,29,07,39,17.20
2008,06,29,07,40,17.20
2008,06,29,07,41,17.10
2008,06,29,07,42,17.00
2008,06,29,07,43,16.90
2008,06,29,07,44,16.90
2008,06,29,07,45,16.80
2008,06,29,07,46,16.80
2008,06,29,07,47,16.80
2008,06,29,07,48,16.80
2008,06,29,07,49,16.80
2008,06,29,07,50,16.70
2008,06,29,07,51,16.70
2008,06,29,07,52,16.70
2008,06,29,07,53,16.70
2008,06,29,07,54,16.80
2008,06,29,07,55,16.80
2008,06,29,07,56,16.90
2008,06,29,07,57,17.00
2008,06,29,07,58,17.00
2008,06,29,07,59,17.10
2008,06,29,08,00,17.20
2008,06,29,08,01,17.30
2008,06,29,08,02,17.30
2008,06,29,08,03,17.30
2008,06,29,08,04,17.40
2008,06,29,08,05,17.50
2008,06,29,08,06,17.60
2008,06,29,08,07,17.70
2008,06,29,08,08,17.70
2008,06,29,08,09,17.80
2008,06,29,08,10,17.80
2008,06,29,08,11,17.80
2008,06,29,08,12,17.90
2008,06,29,08,13,17.90
2008,06,29,08,14,17.90
2008,06,29,08,15,18.00
2008,06,29,08,16,18.10
2008,06,29,08,17,18.10
2008,06,29,08,18,18.20
2008,06,29,08,19,18.20
2008,06,29,08,20,18.30
2008,06,29,08,21,18.30
2008,06,29,08,22,18.40
2008,06,29,08,23,18.50
2008,06,29,08,24,18.50
2008,06,29,08,25,18.50
2008,06,29,08,26,18.50
2008,06,29,08,27,18.50
2008,06,29,08,28,18.50
2008,06,29,08,29,18.50
2008,06,29,08,30,18.60
2008,06,29,08,31,18.60
2008,06,29,08,32,18.80
2008,06,29,08,33,18.90
2008,06,29,08,34,19.10
2008,06,29,08,35,19.20
2008,06,29,08,36,19.40
2008,06,29,08,37,19.60
2008,06,29,08,38,19.70
2008,06,29,08,39,19.90
2008,06,29,08,40,20.00
2008,06,29,08,41,20.10
2008,06,29,08,42,20.20
2008,06,29,08,43,20.30
2008,06,29,08,44,20.40
2008,06,29,08,45,20.50
2008,06,29,08,46,20.60
2008,06,29,08,47,20.70
2008,06,29,08,48,20.70
2008,06,29,08,49,20.70
2008,06,29,08,50,20.40
2008,06,29,08,51,20.10
2008,06,29,08,52,19.80
2008,06,29,08,53,19.50
2008,06,29,08,54,19.30
2008,06,29,08,55,19.20
2008,06,29,08,56,19.10
2008,06,29,08,57,19.10
2008,06,29,08,58,19.10
2008,06,29,08,59,19.10
2008,06,29,09,00,19.10
2008,06,29,09,01,19.10
2008,06,29,09,02,19.10
2008,06,29,09,03,19.20
2008,06,29,09,04,19.10
2008,06,29,09,05,19.10
2008,06,29,09,06,19.20
2008,06,29,09,07,19.20
2008,06,29,09,08,19.20
2008,06,29,09,09,19.20
2008,06,29,09,10,19.20
2008,06,29,09,11,19.20
2008,06,29,09,12,19.20
2008,06,29,09,13,19.20
2008,06,29,09,14,19.30
2008,06,29,09,15,19.40
2008,06,29,09,16,19.50
2008,06,29,09,17,19.60
2008,06,29,09,18,19.60
2008,06,29,09,19,19.60
2008,06,29,09,20,19.60
2008,06,29,09,21,19.60
2008,06,29,09,22,19.70
2008,06,29,09,23,19.70
2008,06,29,09,24,19.80
2008,06,29,09,25,19.90
2008,06,29,09,26,19.90
2008,06,29,09,27,20.00
2008,06,29,09,28,20.10
2008,06,29,09,29,20.30
2008,06,29,09,30,20.60
2008,06,29,09,31,21.10
2008,06,29,09,32,21.50
2008,06,29,09,33,21.80
2008,06,29,09,34,22.20
2008,06,29,09,35,22.40
2008,06,29,09,36,22.70
2008,06,29,09,37,22.90
2008,06,29,09,38,23.10
2008,06,29,09,39,23.30
2008,06,29,09,40,23.50
2008,06,29,09,41,23.60
2008,06,29,09,42,23.60
2008,06,29,09,43,23.60
2008,06,29,09,44,23.40
2008,06,29,09,45,23.30
2008,06,29,09,46,23.30
2008,06,29,09,47,23.40
2008,06,29,09,48,23.60
2008,06,29,09,49,23.70
2008,06,29,09,50,23.70
2008,06,29,09,51,23.80
2008,06,29,09,52,23.90
2008,06,29,09,53,24.00
2008,06,29,09,54,24.10
2008,06,29,09,55,24.10
2008,06,29,09,56,24.10
2008,06,29,09,57,24.20
2008,06,29,09,58,24.30
2008,06,29,09,59,24.40
2008,06,29,10,00,24.40
2008,06,29,10,01,24.40
2008,06,29,10,02,24.40
2008,06,29,10,03,24.50
2008,06,29,10,04,24.50
2008,06,29,10,05,24.50
2008,06,29,10,06,24.60
2008,06,29,10,07,24.60
2008,06,29,10,08,24.60
2008,06,29,10,09,24.60
2008,06,29,10,10,24.60
2008,06,29,10,11,24.60
2008,06,29,10,12,24.60
2008,06,29,10,13,24.60
2008,06,29,10,14,24.60
2008,06,29,10,15,24.70
2008,06,29,10,16,24.80
2008,06,29,10,17,24.90
2008,06,29,10,18,25.00
2008,06,29,10,19,25.00
2008,06,29,10,20,25.10
2008,06,29,10,21,25.10
2008,06,29,10,22,25.10
2008,06,29,10,23,25.10
2008,06,29,10,24,25.00
2008,06,29,10,25,25.00
2008,06,29,10,26,24.90
2008,06,29,10,27,24.80
2008,06,29,10,28,24.70
2008,06,29,10,29,24.80
2008,06,29,10,30,24.80
2008,06,29,10,31,24.70
2008,06,29,10,32,24.70
2008,06,29,10,33,24.70
2008,06,29,10,34,24.70
2008,06,29,10,35,24.70
2008,06,29,10,36,24.70
2008,06,29,10,37,24.70
2008,06,29,10,38,24.70
2008,06,29,10,39,24.80
2008,06,29,10,40,24.80
2008,06,29,10,41,24.80
2008,06,29,10,42,24.90
2008,06,29,10,43,24.90
2008,06,29,10,44,24.90
2008,06,29,10,45,24.90
2008,06,29,10,46,24.90
2008,06,29,10,47,24.90
2008,06,29,10,48,24.90
2008,06,29,10,49,24.90
2008,06,29,10,50,24.90
2008,06,29,10,51,25.00
2008,06,29,10,52,25.10
2008,06,29,10,53,25.20
2008,06,29,10,54,25.40
2008,06,29,10,55,25.40
2008,06,29,10,56,25.30
2008,06,29,10,57,25.40
2008,06,29,10,58,25.40
2008,06,29,10,59,25.40
2008,06,29,11,00,25.30
2008,06,29,11,01,25.30
2008,06,29,11,02,25.20
2008,06,29,11,03,25.20
2008,06,29,11,04,25.30
2008,06,29,11,05,25.30
2008,06,29,11,06,25.30
2008,06,29,11,07,25.30
2008,06,29,11,08,25.30
2008,06,29,11,09,25.40
2008,06,29,11,10,25.40
2008,06,29,11,11,25.40
2008,06,29,11,12,25.40
2008,06,29,11,13,25.40
2008,06,29,11,14,25.50
2008,06,29,11,15,25.50
2008,06,29,11,16,25.50
2008,06,29,11,17,25.50
2008,06,29,11,18,25.50
2008,06,29,11,19,25.60
2008,06,29,11,20,25.60
2008,06,29,11,21,25.70
2008,06,29,11,22,25.70
2008,06,29,11,23,25.70
2008,06,29,11,24,25.70
2008,06,29,11,25,25.70
2008,06,29,11,26,25.70
2008,06,29,11,27,25.70
2008,06,29,11,28,25.70
2008,06,29,11,29,25.80
2008,06,29,11,30,25.90
2008,06,29,11,31,25.90
2008,06,29,11,32,26.00
2008,06,29,11,33,26.20
2008,06,29,11,34,26.30
2008,06,29,11,35,26.50
2008,06,29,11,36,26.60
2008,06,29,11,37,26.60
2008,06,29,11,38,26.60
2008,06,29,11,39,26.60
2008,06,29,11,40,26.60
2008,06,29,11,41,26.60
2008,06,29,11,42,26.60
2008,06,29,11,43,26.50
2008,06,29,11,44,26.40
2008,06,29,11,45,26.40
2008,06,29,11,46,26.50
2008,06,29,11,47,26.40
2008,06,29,11,48,26.50
2008,06,29,11,49,26.60
2008,06,29,11,50,26.60
2008,06,29,11,51,26.70
2008,06,29,11,52,26.80
2008,06,29,11,53,26.90
2008,06,29,11,54,26.90
2008,06,29,11,55,26.90
2008,06,29,11,56,27.00
2008,06,29,11,57,27.00
2008,06,29,11,58,26.90
2008,06,29,11,59,27.00
2008,06,29,12,00,27.00
2008,06,29,12,01,26.90
2008,06,29,12,02,26.90
2008,06,29,12,03,26.90
2008,06,29,12,04,26.80
2008,06,29,12,05,26.80
2008,06,29,12,06,26.80
2008,06,29,12,07,26.80
2008,06,29,12,08,26.90
2008,06,29,12,09,26.90
2008,06,29,12,10,27.10
2008,06,29,12,11,27.20
2008,06,29,12,12,27.30
2008,06,29,12,13,27.30
2008,06,29,12,14,27.30
2008,06,29,12,15,27.30
2008,06,29,12,16,27.30
2008,06,29,12,17,27.20
2008,06,29,12,18,27.20
2008,06,29,12,19,27.10
2008,06,29,12,20,27.00
2008,06,29,12,21,26.90
2008,06,29,12,22,27.00
2008,06,29,12,23,26.90
2008,06,29,12,24,26.90
2008,06,29,12,25,26.90
2008,06,29,12,26,26.90
2008,06,29,12,27,26.90
2008,06,29,12,28,27.00
2008,06,29,12,29,27.10
2008,06,29,12,30,27.10
2008,06,29,12,31,27.10
2008,06,29,12,32,27.10
2008,06,29,12,33,27.10
2008,06,29,12,34,27.10
2008,06,29,12,35,27.00
2008,06,29,12,36,26.90
2008,06,29,12,37,26.90
2008,06,29,12,38,27.00
2008,06,29,12,39,27.10
2008,06,29,12,40,27.20
2008,06,29,12,41,27.10
2008,06,29,12,42,27.10
2008,06,29,12,43,27.10
2008,06,29,12,44,27.20
2008,06,29,12,45,27.20
2008,06,29,12,46,27.20
2008,06,29,12,47,27.30
2008,06,29,12,48,27.30
2008,06,29,12,49,27.30
2008,06,29,12,50,27.30
2008,06,29,12,51,27.30
2008,06,29,12,52,27.30
2008,06,29,12,53,27.30
2008,06,29,12,54,27.30
2008,06,29,12,55,27.20
2008,06,29,12,56,27.20
2008,06,29,12,57,27.30
2008,06,29,12,58,27.30
2008,06,29,12,59,27.30
2008,06,29,13,00,27.40
2008,06,29,13,01,27.50
2008,06,29,13,02,27.60
2008,06,29,13,03,27.40
2008,06,29,13,04,26.80
2008,06,29,13,05,26.20
2008,06,29,13,06,25.60
2008,06,29,13,07,25.00
2008,06,29,13,08,24.70
2008,06,29,13,09,24.40
2008,06,29,13,10,24.10
2008,06,29,13,11,23.80
2008,06,29,13,12,23.40
2008,06,29,13,13,23.10
2008,06,29,13,14,22.90
2008,06,29,13,15,22.80
2008,06,29,13,16,22.80
2008,06,29,13,17,22.70
2008,06,29,13,18,22.60
2008,06,29,13,19,22.50
2008,06,29,13,20,22.30
2008,06,29,13,21,22.20
2008,06,29,13,22,22.10
2008,06,29,13,23,22.10
2008,06,29,13,24,22.20
2008,06,29,13,25,22.30
2008,06,29,13,26,22.40
2008,06,29,13,27,22.60
2008,06,29,13,28,22.80
2008,06,29,13,29,22.90
2008,06,29,13,30,23.00
2008,06,29,13,31,23.20
2008,06,29,13,32,23.20
2008,06,29,13,33,23.30
2008,06,29,13,34,23.40
2008,06,29,13,35,23.40
2008,06,29,13,36,23.40
2008,06,29,13,37,23.30
2008,06,29,13,38,23.20
2008,06,29,13,39,23.10
2008,06,29,13,40,22.90
2008,06,29,13,41,22.80
2008,06,29,13,42,22.80
2008,06,29,13,43,22.90
2008,06,29,13,44,22.90
2008,06,29,13,45,22.80
2008,06,29,13,46,22.80
2008,06,29,13,47,22.80
2008,06,29,13,48,22.70
2008,06,29,13,49,22.40
2008,06,29,13,50,22.30
2008,06,29,13,51,22.10
2008,06,29,13,52,22.00
2008,06,29,13,53,21.80
2008,06,29,13,54,21.60
2008,06,29,13,55,21.50
2008,06,29,13,56,21.40
2008,06,29,13,57,21.40
2008,06,29,13,58,21.40
2008,06,29,13,59,21.40
2008,06,29,14,00,21.40
2008,06,29,14,01,21.50
2008,06,29,14,02,21.60
2008,06,29,14,03,21.60
2008,06,29,14,04,21.90
2008,06,29,14,05,22.10
2008,06,29,14,06,22.20
2008,06,29,14,07,22.30
2008,06,29,14,08,22.50
2008,06,29,14,09,22.50
2008,06,29,14,10,22.40
2008,06,29,14,11,22.30
2008,06,29,14,12,22.20
2008,06,29,14,13,22.00
2008,06,29,14,14,21.90
2008,06,29,14,15,21.90
2008,06,29,14,16,21.90
2008,06,29,14,17,22.00
2008,06,29,14,18,21.90
2008,06,29,14,19,21.80
2008,06,29,14,20,21.90
2008,06,29,14,21,22.00
2008,06,29,14,22,22.00
2008,06,29,14,23,22.10
2008,06,29,14,24,22.20
2008,06,29,14,25,22.30
2008,06,29,14,26,22.10
2008,06,29,14,27,22.00
2008,06,29,14,28,21.90
2008,06,29,14,29,21.90
2008,06,29,14,30,21.70
2008,06,29,14,31,21.60
2008,06,29,14,32,21.60
2008,06,29,14,33,21.50
2008,06,29,14,34,21.40
2008,06,29,14,35,21.20
2008,06,29,14,36,21.10
2008,06,29,14,37,21.10
2008,06,29,14,38,21.20
2008,06,29,14,39,21.20
2008,06,29,14,40,21.20
2008,06,29,14,41,21.20
2008,06,29,14,42,21.30
2008,06,29,14,43,21.30
2008,06,29,14,44,21.30
2008,06,29,14,45,21.30
2008,06,29,14,46,21.30
2008,06,29,14,47,21.30
2008,06,29,14,48,21.30
2008,06,29,14,49,21.30
2008,06,29,14,50,21.30
2008,06,29,14,51,21.50
2008,06,29,14,52,21.70
2008,06,29,14,53,22.00
2008,06,29,14,54,22.20
2008,06,29,14,55,22.20
2008,06,29,14,56,22.30
2008,06,29,14,57,22.40
2008,06,29,14,58,22.40
2008,06,29,14,59,22.40
2008,06,29,15,00,22.40
2008,06,29,15,01,22.40
2008,06,29,15,02,22.60
2008,06,29,15,03,22.60
2008,06,29,15,04,22.80
2008,06,29,15,05,22.80
2008,06,29,15,06,22.80
2008,06,29,15,07,22.80
2008,06,29,15,08,22.90
2008,06,29,15,09,23.10
2008,06,29,15,10,23.00
2008,06,29,15,11,22.90
2008,06,29,15,12,23.00
2008,06,29,15,13,23.10
2008,06,29,15,14,23.20
2008,06,29,15,15,23.20
2008,06,29,15,16,23.20
2008,06,29,15,17,23.30
2008,06,29,15,18,23.30
2008,06,29,15,19,23.40
2008,06,29,15,20,23.60
2008,06,29,15,21,23.70
2008,06,29,15,22,23.80
2008,06,29,15,23,23.70
2008,06,29,15,24,23.80
2008,06,29,15,25,23.80
2008,06,29,15,26,23.70
2008,06,29,15,27,23.70
2008,06,29,15,28,23.80
2008,06,29,15,29,23.80
2008,06,29,15,30,23.90
2008,06,29,15,31,24.00
2008,06,29,15,32,24.10
2008,06,29,15,33,24.10
2008,06,29,15,34,24.00
2008,06,29,15,35,23.90
2008,06,29,15,36,23.80
2008,06,29,15,37,23.90
2008,06,29,15,38,23.90
2008,06,29,15,39,23.70
2008,06,29,15,40,23.60
2008,06,29,15,41,23.60
2008,06,29,15,42,23.70
2008,06,29,15,43,23.70
2008,06,29,15,44,23.70
2008,06,29,15,45,23.70
2008,06,29,15,46,23.70
2008,06,29,15,47,23.60
2008,06,29,15,48,23.40
2008,06,29,15,49,23.30
2008,06,29,15,50,23.20
2008,06,29,15,51,23.10
2008,06,29,15,52,23.00
2008,06,29,15,53,22.90
2008,06,29,15,54,22.90
2008,06,29,15,55,23.00
2008,06,29,15,56,23.10
2008,06,29,15,57,23.20
2008,06,29,15,58,23.30
2008,06,29,15,59,23.30
2008,06,29,16,00,23.30
2008,06,29,16,01,23.20
2008,06,29,16,02,23.10
2008,06,29,16,03,23.10
2008,06,29,16,04,22.90
2008,06,29,16,05,22.90
2008,06,29,16,06,22.90
2008,06,29,16,07,22.90
2008,06,29,16,08,23.10
2008,06,29,16,09,23.00
2008,06,29,16,10,23.10
2008,06,29,16,11,23.10
2008,06,29,16,12,23.20
2008,06,29,16,13,23.20
2008,06,29,16,14,23.30
2008,06,29,16,15,23.30
2008,06,29,16,16,23.30
2008,06,29,16,17,23.30
2008,06,29,16,18,23.30
2008,06,29,16,19,23.20
2008,06,29,16,20,23.10
2008,06,29,16,21,22.90
2008,06,29,16,22,22.90
2008,06,29,16,23,22.90
2008,06,29,16,24,22.90
2008,06,29,16,25,22.90
2008,06,29,16,26,22.90
2008,06,29,16,27,23.00
2008,06,29,16,28,23.10
2008,06,29,16,29,23.20
2008,06,29,16,30,23.30
2008,06,29,16,31,23.50
2008,06,29,16,32,23.70
2008,06,29,16,33,23.90
2008,06,29,16,34,24.00
2008,06,29,16,35,24.10
2008,06,29,16,36,24.10
2008,06,29,16,37,24.10
2008,06,29,16,38,24.20
2008,06,29,16,39,24.30
2008,06,29,16,40,24.40
2008,06,29,16,41,24.50
2008,06,29,16,42,24.60
2008,06,29,16,43,24.60
2008,06,29,16,44,24.60
2008,06,29,16,45,24.70
2008,06,29,16,46,24.70
2008,06,29,16,47,24.60
2008,06,29,16,48,24.70
2008,06,29,16,49,24.70
2008,06,29,16,50,24.70
2008,06,29,16,51,24.70
2008,06,29,16,52,24.70
2008,06,29,16,53,24.60
2008,06,29,16,54,24.50
2008,06,29,16,55,24.40
2008,06,29,16,56,24.20
2008,06,29,16,57,24.10
2008,06,29,16,58,23.90
2008,06,29,16,59,23.80
2008,06,29,17,00,23.70
2008,06,29,17,01,23.70
2008,06,29,17,02,23.70
2008,06,29,17,03,23.70
2008,06,29,17,04,23.70
2008,06,29,17,05,23.70
2008,06,29,17,06,23.80
2008,06,29,17,07,23.90
2008,06,29,17,08,23.90
2008,06,29,17,09,23.80
2008,06,29,17,10,23.70
2008,06,29,17,11,23.80
2008,06,29,17,12,23.80
2008,06,29,17,13,23.90
2008,06,29,17,14,24.00
2008,06,29,17,15,24.10
2008,06,29,17,16,24.20
2008,06,29,17,17,24.30
2008,06,29,17,18,24.20
2008,06,29,17,19,24.20